Location: *
(58.4167°N, 22.5000°E)
Time: 12:15:00
(UTC+00:00)

USA 267 - Pass Details

Date: 22 September 2019
Orbit: 1102 x 1106 km, 123.0° (Epoch: 08 October)

Event Time Altitude Azimuth Distance (km) Brightness Sun altitude
Rises 23:30:04 0° 74° (ENE) 3,926 6.6 -30.0°
Reaches altitude 10° 23:32:35 10° 77° (ENE) 2,967 5.9 -29.8°
Enters shadow 23:38:42 64° 139° (SE) 1,211 3.2 -29.6°
